User: anonymous   Login
Location: Unspecified
(0.0000°N, 0.0000°E)
Time: 07:49:28
(UTC+00:00)
Language:

Asterix - Orbit

View from above orbital plane
View from above orbital plane
View from above satellite
View from above satellite

Ground track
Ground track

The orbit data is extracted from the following two-line orbital elements,

1 01778U 65096A   18112.62339120  .00000007  00000-0  71265-5 0  9991
2 01778  34.2542 195.8142 0751540 107.5353 260.8782 13.46860954562496
Epoch (UTC): 22 April 2018 14:57:41
Eccentricity: 0.0751540
inclination: 34.2542°
perigee height: 523 km
apogee height: 1644 km
right ascension of ascending node: 195.8142°
argument of perigee: 107.5353°
revolutions per day: 13.46860954
mean anomaly at epoch: 260.8782°
orbit number at epoch: 56249

The dashed part of the orbit path shows where the satellite is in the earth's shadow,  

DLR